Date,TemperatureHighF,TemperatureAvgF,TemperatureLowF,DewpointHighF,DewpointAvgF,DewpointLowF,HumidityHigh,HumidityAvg,HumidityLow,PressureMaxIn,PressureMinIn,WindSpeedMaxMPH,WindSpeedAvgMPH,GustSpeedMaxMPH,PrecipitationSumIn
2013-1-13,9,8,8,2,1,0,72,72,71,30.29,30.28,18,10,18,0.00
2013-4-11,36,32,29,36,32,29,98,97,94,29.73,29.67,0,0,0,0.14
2013-4-12,32,31,29,30,28,27,96,89,82,29.94,29.74,0,0,0,0.03
2013-4-13,34,30,24,30,27,22,96,89,80,30.00,29.85,13,3,21,0.20
2013-4-14,39,37,33,39,35,31,98,93,85,29.83,29.38,22,12,33,0.41
2013-4-15,36,34,29,31,29,25,87,82,76,30.08,29.57,34,14,38,0.00
2013-4-18,31,30,29,30,29,28,96,95,94,29.84,29.78,32,13,32,0.02
2013-4-21,50,41,36,47,38,33,92,91,88,30.19,30.05,19,7,19,0.12
2013-4-22,36,32,29,33,30,27,97,93,88,30.27,30.14,33,12,33,0.00
2013-4-25,63,54,36,41,38,23,69,55,40,30.24,29.94,27,11,27,0.00
2013-4-26,68,56,42,44,38,28,83,56,24,30.15,29.94,21,5,21,0.00
2013-4-27,75,56,37,44,36,30,89,56,20,30.15,29.89,18,3,18,0.00
2013-5-3,49,43,32,32,25,21,77,51,34,30.36,30.15,31,13,31,0.00
2013-5-4,40,37,35,38,35,31,97,91,77,30.22,30.11,31,12,31,0.07
2013-5-5,51,45,38,46,42,37,96,90,80,30.22,30.14,14,4,14,0.01
2013-5-6,64,51,45,50,46,44,96,83,59,30.16,30.04,10,2,10,0.00
2013-5-7,74,58,40,53,46,38,97,70,34,30.08,29.93,24,5,24,0.00
2013-5-8,60,57,55,58,54,50,97,91,75,29.95,29.90,19,5,19,0.68
2013-5-9,61,56,48,55,53,45,96,91,81,30.08,29.90,32,12,32,0.06
2013-5-10,68,54,40,47,39,32,91,61,32,30.12,29.95,36,7,36,0.00
2013-5-11,54,47,39,41,24,14,71,43,21,30.26,30.03,35,11,36,0.00
2013-5-12,62,48,31,30,21,16,67,37,17,30.29,30.09,18,3,18,0.00
2013-5-13,88,66,44,52,41,27,54,42,25,30.10,29.68,32,9,32,0.00
2013-5-14,70,70,70,49,49,48,46,46,46,29.70,29.70,9,4,10,0.00
2013-5-17,84,75,68,64,63,61,82,67,47,29.78,29.73,19,7,19,0.28
2013-5-18,83,74,64,66,62,59,89,68,45,29.82,29.63,25,8,25,0.00
2013-5-19,73,67,63,65,62,60,94,86,71,29.66,29.45,33,7,33,0.17
2013-5-20,68,62,56,61,56,52,96,81,57,29.48,29.40,30,9,30,0.00
2013-5-21,60,56,52,56,52,50,96,88,76,29.66,29.45,18,6,18,0.01
2013-5-22,52,50,47,51,48,46,96,91,84,30.00,29.65,29,10,29,0.07
2013-5-23,66,55,45,47,41,28,90,62,25,30.27,30.00,26,10,26,0.00
2013-5-24,69,58,45,55,44,36,77,62,39,30.28,30.06,30,10,30,0.21
2013-5-25,72,58,51,58,52,49,94,80,62,30.09,30.00,29,11,29,0.00
2013-5-26,60,53,50,58,52,49,97,95,90,30.10,29.88,29,11,29,0.60
2013-5-27,63,57,53,59,56,52,99,95,87,29.97,29.72,28,9,28,0.85
2013-5-28,73,61,55,61,58,55,99,89,64,29.73,29.63,17,4,19,0.12
2013-5-29,78,68,58,69,64,57,99,89,68,29.72,29.46,29,10,29,0.20
2013-5-30,75,67,62,64,62,59,95,83,59,29.49,29.38,32,12,32,0.01
2013-6-2,68,64,56,40,37,34,54,37,29,30.06,29.98,16,2,16,0.00
2013-6-3,73,62,47,49,45,38,83,57,35,30.00,29.80,34,9,35,0.00
2013-6-4,64,60,57,60,56,49,97,86,60,30.00,29.78,28,6,28,0.47
2013-6-5,64,58,52,58,52,48,98,79,64,30.00,29.94,20,5,20,0.00
2013-6-6,62,57,52,54,52,49,95,84,63,30.01,29.93,15,5,18,0.01
2013-6-7,70,60,48,53,50,47,96,72,47,30.04,29.85,12,2,12,0.00
2013-6-8,59,57,54,58,54,48,96,89,72,29.85,29.66,33,10,33,2.03
2013-6-9,66,61,58,62,59,57,98,94,85,29.82,29.55,30,8,32,0.52
2013-6-10,76,64,56,64,58,55,99,85,60,29.86,29.76,17,4,17,0.00
2013-6-17,74,71,68,54,53,52,61,54,47,29.95,29.92,9,3,9,0.00
2013-6-18,82,72,60,60,55,51,84,57,35,30.00,29.90,14,4,14,0.00
2013-6-19,87,76,64,66,59,54,79,58,37,29.95,29.79,27,7,27,0.03
2013-6-20,89,79,69,71,67,64,86,68,52,29.85,29.71,33,12,33,0.00
2013-6-24,80,76,71,71,69,67,89,80,68,29.73,29.69,17,5,17,0.24
2013-6-25,88,83,77,73,71,69,83,68,56,29.62,29.60,19,4,19,0.00
2013-7-8,86,82,78,73,72,70,80,72,64,29.86,29.82,11,4,11,0.00
2013-7-9,84,78,66,74,69,64,92,75,57,29.92,29.75,31,6,31,0.19
2013-7-10,81,71,61,67,58,51,91,65,38,30.06,29.92,20,4,20,0.01
2013-7-11,85,74,63,65,60,56,82,64,48,30.04,29.87,24,8,26,0.00
2013-7-17,91,86,76,71,70,68,79,59,49,30.19,30.04,22,7,22,0.00
2013-7-18,91,82,72,72,70,68,90,69,47,30.05,29.75,28,8,28,0.00
2013-7-19,83,78,68,71,64,56,86,64,41,29.87,29.74,20,4,20,0.00
2013-7-20,81,72,62,68,63,58,91,77,54,29.93,29.82,26,3,26,0.06
2013-7-21,87,77,67,70,66,62,90,71,47,29.86,29.69,13,3,13,0.00
2013-7-22,84,75,65,73,66,59,98,77,52,29.85,29.64,26,6,26,0.00
2013-7-23,74,66,59,59,57,52,88,73,49,29.99,29.83,20,5,20,0.00
2013-7-24,80,70,57,63,58,53,89,69,50,30.05,29.94,15,2,15,0.00
2013-7-25,83,73,61,70,64,58,91,75,60,29.96,29.85,16,3,16,0.00
2013-7-26,71,64,57,66,53,46,91,68,47,30.09,29.91,27,8,27,0.00
2013-7-27,68,59,48,50,46,42,89,64,42,30.11,29.99,21,6,25,0.00
2013-7-28,73,62,48,53,47,44,85,60,40,30.04,29.99,17,4,17,0.00
2013-7-29,74,62,50,59,54,47,89,74,53,30.06,30.00,20,4,21,0.00
2013-7-30,76,69,63,64,62,59,95,79,65,30.05,30.00,12,3,13,0.00
2013-7-31,64,60,58,61,58,56,95,94,91,30.07,30.03,5,1,5,0.00
2013-8-1,85,76,61,67,64,57,86,67,46,30.01,29.82,20,4,21,0.00
2013-8-2,71,66,60,62,58,54,88,76,55,30.03,29.83,17,2,17,0.08
2013-8-3,76,66,53,56,53,48,92,66,41,30.18,30.03,18,4,18,0.00
2013-8-4,76,66,54,62,56,49,86,70,51,30.19,29.91,18,5,18,0.00
2013-8-5,84,74,67,70,65,60,96,76,46,29.91,29.77,16,4,17,0.00
2013-8-6,86,73,60,68,62,57,94,71,47,29.81,29.68,21,5,21,0.00
2013-8-7,78,68,60,61,58,56,92,73,52,29.98,29.78,17,5,17,0.00
2013-8-8,76,67,60,68,61,55,92,81,71,30.00,29.91,16,4,16,0.01
2013-8-9,78,68,55,64,57,52,97,71,45,30.11,29.97,16,3,16,0.01
2013-8-10,76,65,55,65,59,52,96,83,61,30.15,30.00,14,3,14,0.38
2013-8-11,77,69,62,67,64,61,98,86,66,30.05,29.96,19,3,19,0.70
2013-8-12,78,68,60,63,58,54,95,72,47,30.06,30.00,18,4,18,0.00
2013-8-13,74,65,55,58,54,45,92,69,37,30.15,30.06,18,4,18,0.00
2013-8-14,73,63,52,60,56,50,92,77,61,30.17,30.06,16,4,16,0.00
2013-8-15,68,62,55,60,58,54,95,86,74,30.12,30.05,18,3,18,0.00
2013-8-16,72,63,54,61,58,52,96,83,63,30.16,30.10,17,4,17,0.00
2013-8-17,78,67,55,63,59,54,94,78,56,30.13,30.04,23,5,23,0.00
2013-8-18,79,68,56,64,59,53,94,76,53,30.07,29.95,24,5,24,0.00
2013-8-19,85,74,63,73,67,60,93,79,65,29.99,29.80,22,6,22,0.00
2013-8-20,88,77,67,76,71,66,96,84,59,29.83,29.76,15,4,15,0.00
2013-8-21,80,74,71,74,71,69,95,90,78,29.92,29.76,15,4,15,0.03
2013-8-22,80,74,67,72,66,62,96,78,57,30.05,29.92,23,7,23,0.00
2013-8-23,85,74,64,75,68,61,93,82,69,30.04,29.89,21,6,21,0.00
2013-8-24,88,78,70,78,72,67,94,84,70,29.93,29.83,32,11,32,0.17
2013-8-25,90,81,72,78,74,70,91,79,65,29.93,29.86,27,9,27,0.00
2013-8-26,91,81,72,79,74,70,93,80,62,29.91,29.76,25,6,25,0.00
2013-8-27,92,82,71,78,74,68,91,77,61,29.82,29.73,14,3,14,0.00
2013-8-28,92,82,75,80,77,73,97,84,64,29.90,29.82,20,4,20,0.00
2013-8-29,90,80,69,77,72,64,94,77,46,29.90,29.78,21,4,21,0.00
2013-8-30,85,77,70,75,71,66,96,81,60,29.85,29.78,17,5,17,0.00
2013-8-31,88,75,62,76,68,60,98,81,56,29.83,29.69,41,4,41,0.93
2013-9-1,77,68,59,65,60,56,98,78,59,29.99,29.76,22,6,22,0.00
2013-9-2,76,63,51,57,53,49,94,72,40,30.08,29.98,14,2,14,0.00
2013-9-3,82,67,52,69,60,50,94,79,59,30.05,29.94,17,3,17,0.00
2013-9-4,87,74,62,71,66,61,96,77,48,30.06,29.97,13,2,13,0.00
2013-9-5,82,74,68,72,68,65,90,80,65,30.09,30.00,16,4,16,0.00
2013-9-6,89,76,65,75,68,62,93,77,55,30.01,29.79,22,6,22,0.00
2013-9-7,87,77,69,74,71,67,96,81,64,29.90,29.78,23,5,23,0.00
2013-9-8,78,73,68,72,69,66,95,88,79,29.91,29.75,19,6,19,0.00
2013-9-9,91,78,68,73,69,66,97,75,44,29.77,29.62,22,6,22,0.00
2013-9-10,78,72,67,68,66,63,95,82,64,29.97,29.75,12,2,12,0.00
2013-9-11,83,73,64,65,62,54,94,70,45,30.08,29.96,15,3,15,0.00
2013-9-12,76,67,57,54,50,46,78,56,37,30.20,30.08,16,5,20,0.00
2013-9-13,72,61,49,52,49,46,90,68,42,30.22,30.03,13,3,14,0.00
2013-9-14,68,59,48,58,52,45,91,79,61,30.03,29.77,24,6,24,0.01
2013-9-15,64,60,51,59,55,49,95,85,71,30.27,29.76,29,8,29,0.01
2013-9-16,68,57,48,52,50,47,98,79,54,30.35,30.16,18,5,18,0.01
2013-9-17,64,58,52,63,56,49,98,94,88,30.18,29.82,22,8,22,0.02
2013-9-18,86,75,64,72,69,64,98,84,61,29.82,29.56,24,8,25,0.00
2013-9-19,75,67,53,68,61,49,97,81,44,29.90,29.53,33,6,33,0.18
2013-9-20,62,54,46,50,46,42,92,76,49,29.99,29.89,24,6,24,0.00
2013-9-21,73,56,38,48,43,36,95,66,33,30.01,29.83,13,2,13,0.00
2013-9-22,82,67,52,55,51,45,89,61,34,29.84,29.68,30,9,30,0.00
2013-9-23,78,66,55,54,51,48,82,61,37,29.79,29.68,30,11,30,0.00
2013-9-24,75,63,56,58,54,51,89,74,52,29.88,29.78,13,4,17,0.00
2013-9-25,76,64,51,58,54,50,94,73,47,29.89,29.70,24,6,24,0.00
2013-9-26,86,72,61,61,59,58,93,68,40,29.74,29.64,36,12,36,0.00
2013-9-27,82,74,67,64,62,60,87,68,52,29.72,29.60,27,11,34,0.12
2013-9-28,74,58,48,62,49,41,96,74,44,29.94,29.57,29,8,29,0.30
2013-9-29,80,60,42,48,44,40,91,61,28,29.95,29.71,22,6,26,0.00
2013-9-30,83,67,53,53,49,45,79,55,31,29.72,29.53,24,7,24,0.00
2013-10-1,76,65,52,54,42,26,79,48,17,29.95,29.56,19,5,21,0.00
2013-10-2,80,65,48,66,50,34,92,61,29,29.97,29.73,27,8,31,0.11
2013-10-3,61,56,54,59,54,52,98,95,90,29.87,29.75,23,8,23,0.20
2013-10-4,62,57,54,61,56,49,98,96,83,29.86,29.65,30,13,30,0.01
2013-10-5,54,44,37,49,38,34,91,80,69,29.76,29.70,31,8,31,0.00
2013-10-6,57,47,43,50,42,38,96,84,52,29.97,29.75,26,6,26,0.04
2013-10-7,73,54,39,48,43,37,93,68,34,30.01,29.89,13,3,13,0.00
2013-10-8,76,62,49,49,45,42,79,57,35,29.89,29.72,36,10,36,0.00
2013-10-9,79,64,51,52,49,46,85,61,37,29.94,29.84,22,7,26,0.00
2013-10-10,80,66,55,55,52,48,82,61,39,29.92,29.69,33,11,33,0.00
2013-10-11,74,62,49,59,52,42,86,70,39,29.74,29.44,40,15,40,0.00
2013-10-12,61,51,43,42,34,24,81,54,26,30.25,29.74,33,9,33,0.00
2013-10-13,64,48,31,38,32,28,90,57,30,30.44,30.25,17,3,17,0.00
2013-10-14,52,47,44,49,42,33,97,82,49,30.33,29.69,33,10,33,1.91
2013-10-15,54,47,42,53,46,40,97,94,90,29.98,29.61,28,10,28,0.12
2013-10-16,54,44,36,41,37,33,95,79,49,30.05,29.92,19,5,20,0.00
2013-10-17,54,40,31,44,36,30,95,85,63,30.02,29.86,26,4,26,0.01
2013-10-18,50,40,31,36,32,26,91,74,39,30.10,29.92,27,5,27,0.00
2013-10-19,51,42,32,41,34,29,95,75,53,29.93,29.78,30,7,30,0.00
2013-10-20,53,42,35,43,36,30,89,76,63,30.01,29.65,32,8,32,0.00
2013-10-21,48,38,32,33,30,27,89,72,47,30.05,29.96,22,5,22,0.00
2013-10-22,39,35,32,32,30,27,96,82,62,30.13,29.94,15,3,15,0.07
2013-10-23,39,34,30,34,30,26,95,84,65,30.22,30.08,17,4,17,0.04
2013-10-24,46,37,30,33,29,27,90,75,48,30.39,30.22,26,6,26,0.00
2013-10-25,62,42,25,42,34,23,94,74,47,30.39,29.94,34,8,34,0.00
2013-10-26,47,40,29,40,30,25,88,68,47,30.22,29.95,23,5,23,0.00
2013-10-27,60,41,27,38,31,24,89,70,40,30.10,29.83,26,6,26,0.00
2013-10-28,41,37,32,32,29,26,87,74,62,30.38,30.10,30,14,30,0.00
2013-10-29,43,38,33,41,35,27,97,90,68,30.33,30.05,25,9,25,0.14
2013-10-30,47,41,38,46,41,37,98,97,95,30.05,29.75,19,5,19,0.03
2013-10-31,43,39,34,39,36,33,97,92,84,29.75,29.49,14,5,17,0.00
2013-11-1,52,43,36,41,38,34,95,84,63,29.96,29.53,29,9,29,0.00
2013-11-2,55,42,31,39,33,29,94,75,40,30.14,29.96,20,4,21,0.00
2013-11-3,56,45,34,38,33,30,84,64,41,30.04,29.70,46,14,46,0.01
2013-11-4,49,42,32,41,34,27,89,76,52,30.18,29.73,22,5,22,0.02
2013-11-5,37,32,28,31,28,25,97,88,70,30.24,30.07,26,7,26,0.00
2013-11-6,34,28,22,30,26,20,97,91,80,30.27,30.13,18,5,19,0.01
2013-11-7,36,28,18,30,24,16,96,88,67,30.41,30.25,19,4,19,0.00
2013-11-8,50,39,21,43,33,19,92,80,70,30.25,29.65,31,9,31,0.03
2013-11-9,47,40,28,38,33,24,88,77,56,30.36,29.80,31,10,31,0.00
2013-11-10,44,32,21,34,27,19,93,82,62,30.42,30.13,22,4,22,0.00
2013-11-11,38,20,8,34,13,3,90,76,64,30.87,30.15,34,10,34,0.00
2013-11-12,30,16,3,17,9,0,89,74,50,30.93,30.53,18,5,18,0.00
2013-11-13,58,37,20,37,27,14,82,68,42,30.53,29.92,27,8,27,0.00
2013-11-14,56,40,31,42,34,28,94,81,55,29.94,29.82,22,3,22,0.00
2013-11-15,55,39,27,43,34,25,96,83,60,29.87,29.55,23,5,23,0.00
2013-11-16,51,42,35,49,41,33,97,94,88,29.56,29.22,15,5,15,0.04